"Period start","avg(HW err(1)/warn(2) (#))","avg(Visibility (m))","avg(Weather code (#))","avg(Precip intensity (mm/h))","min(HW err(1)/warn(2) (#))","max(HW err(1)/warn(2) (#))","std(HW err(1)/warn(2) (#))","med(HW err(1)/warn(2) (#))","min(Visibility (m))","max(Visibility (m))","std(Visibility (m))","med(Visibility (m))","min(Weather code (#))","max(Weather code (#))","std(Weather code (#))","med(Weather code (#))","min(Precip intensity (mm/h))","max(Precip intensity (mm/h))","std(Precip intensity (mm/h))","med(Precip intensity (mm/h))"
2014-08-07 00:00:00,2,46824,0,0.00,0,2,1,2,34585,50000,4799,49716,0,0,0,0,0.00,0.00,0.00,0.00
2014-08-07 00:10:00,1,46477,0,0.00,0,2,1,0,37869,50000,4791,49455,0,0,0,0,0.00,0.00,0.00,0.00
2014-08-07 00:20:00,2,47328,0,0.00,0,2,1,2,38453,50000,4008,50000,0,0,0,0,0.00,0.00,0.00,0.00
2014-08-07 00:30:00,1,47420,0,0.00,0,2,1,0,38396,50000,3476,48688,0,0,0,0,0.00,0.00,0.00,0.00
2014-08-07 00:40:00,1,44353,0,0.00,0,2,1,2,28213,50000,7127,46560,0,0,0,0,0.00,0.00,0.00,0.00
2014-08-07 00:50:00,2,39631,0,0.00,0,2,1,2,26896,50000,6442,38530,0,0,0,0,0.00,0.00,0.00,0.00
2014-08-07 01:00:00,0,47242,0,0.00,0,0,0,0,34325,50000,5459,50000,0,0,0,0,0.00,0.00,0.00,0.00
2014-08-07 01:10:00,1,44404,0,0.00,0,2,1,2,33718,50000,6623,48186,0,0,0,0,0.00,0.00,0.00,0.00
2014-08-07 01:20:00,0,46462,0,0.00,0,2,1,0,34747,50000,5056,49662,0,0,0,0,0.00,0.00,0.00,0.00
2014-08-07 01:30:00,1,46984,0,0.00,0,2,1,0,36013,50000,4262,48879,0,0,0,0,0.00,0.00,0.00,0.00
2014-08-07 01:40:00,2,43950,0,0.00,0,2,1,2,30067,50000,7556,49722,0,0,0,0,0.00,0.00,0.00,0.00
2014-08-07 01:50:00,0,46777,0,0.00,0,2,1,0,36052,50000,5243,49304,0,0,0,0,0.00,0.00,0.00,0.00
2014-08-07 02:00:00,0,45204,0,0.00,0,0,0,0,38531,50000,3850,45121,0,0,0,0,0.00,0.00,0.00,0.00
2014-08-07 02:10:00,0,42134,0,0.00,0,2,1,0,31863,50000,7009,40943,0,0,0,0,0.00,0.00,0.00,0.00
2014-08-07 02:20:00,0,48026,0,0.00,0,0,0,0,43795,50000,2375,49658,0,0,0,0,0.00,0.00,0.00,0.00
2014-08-07 02:30:00,0,49309,0,0.00,0,2,1,0,45603,50000,1350,50000,0,0,0,0,0.00,0.00,0.00,0.00
2014-08-07 02:40:00,0,48540,0,0.00,0,0,0,0,44464,50000,2070,50000,0,0,0,0,0.00,0.00,0.00,0.00
2014-08-07 02:50:00,0,46644,0,0.00,0,2,1,0,38818,50000,4114,49516,0,0,0,0,0.00,0.00,0.00,0.00
2014-08-07 03:00:00,0,48533,0,0.00,0,2,1,0,40266,50000,3015,50000,0,0,0,0,0.00,0.00,0.00,0.00
2014-08-07 03:10:00,0,46924,0,0.00,0,2,1,0,41090,50000,3116,47412,0,0,0,0,0.00,0.00,0.00,0.00
2014-08-07 03:20:00,0,40442,0,0.00,0,0,0,0,26510,50000,8226,43760,0,0,0,0,0.00,0.00,0.00,0.00
2014-08-07 03:30:00,0,47145,0,0.00,0,0,0,0,31420,50000,5388,48953,0,0,0,0,0.00,0.00,0.00,0.00
2014-08-07 03:40:00,0,43371,0,0.00,0,0,0,0,33524,50000,5716,42242,0,0,0,0,0.00,0.00,0.00,0.00
2014-08-07 03:50:00,0,46647,0,0.00,0,0,0,0,37796,50000,4120,48602,0,0,0,0,0.00,0.00,0.00,0.00
2014-08-07 04:00:00,0,47041,0,0.00,0,0,0,0,40103,50000,3643,49542,0,0,0,0,0.00,0.00,0.00,0.00
2014-08-07 04:10:00,0,47351,0,0.00,0,0,0,0,39512,50000,3318,49066,0,0,0,0,0.00,0.00,0.00,0.00
2014-08-07 04:20:00,0,47778,0,0.00,0,0,0,0,43664,50000,2092,48287,0,0,0,0,0.00,0.00,0.00,0.00
2014-08-07 04:30:00,0,50000,0,0.00,0,0,0,0,50000,50000,0,50000,0,0,0,0,0.00,0.00,0.00,0.00
2014-08-07 04:40:00,0,48807,0,0.00,0,0,0,0,42369,50000,2241,49856,0,0,0,0,0.00,0.00,0.00,0.00
2014-08-07 04:50:00,0,49542,0,0.00,0,0,0,0,48072,50000,746,50000,0,0,0,0,0.00,0.00,0.00,0.00
2014-08-07 05:00:00,0,48840,0,0.00,0,0,0,0,44648,50000,1806,50000,0,0,0,0,0.00,0.00,0.00,0.00
2014-08-07 05:10:00,0,49487,0,0.00,0,0,0,0,46010,50000,1208,50000,0,0,0,0,0.00,0.00,0.00,0.00
2014-08-07 05:20:00,0,48918,0,0.00,0,0,0,0,40157,50000,2935,50000,0,0,0,0,0.00,0.00,0.00,0.00
2014-08-07 05:30:00,0,49876,0,0.00,0,0,0,0,48756,50000,373,50000,0,0,0,0,0.00,0.00,0.00,0.00
2014-08-07 05:40:00,0,49712,0,0.00,0,0,0,0,47122,50000,863,50000,0,0,0,0,0.00,0.00,0.00,0.00
2014-08-07 05:50:00,0,49652,0,0.00,0,0,0,0,47626,50000,752,50000,0,0,0,0,0.00,0.00,0.00,0.00
2014-08-07 06:00:00,0,48232,0,0.00,0,0,0,0,38954,50000,3298,49996,0,0,0,0,0.00,0.00,0.00,0.00
2014-08-07 06:10:00,0,49043,0,0.00,0,0,0,0,43808,50000,1884,50000,0,0,0,0,0.00,0.00,0.00,0.00
2014-08-07 06:20:00,0,47320,0,0.00,0,0,0,0,38357,50000,3837,49357,0,0,0,0,0.00,0.00,0.00,0.00
2014-08-07 06:30:00,0,50000,0,0.00,0,0,0,0,50000,50000,0,50000,0,0,0,0,0.00,0.00,0.00,0.00
2014-08-07 06:40:00,0,47415,0,0.00,0,0,0,0,39281,50000,3990,50000,0,0,0,0,0.00,0.00,0.00,0.00
2014-08-07 06:50:00,0,47082,0,0.00,0,0,0,0,39504,50000,4308,50000,0,0,0,0,0.00,0.00,0.00,0.00
2014-08-07 07:00:00,0,48266,0,0.00,0,0,0,0,41709,50000,3027,50000,0,0,0,0,0.00,0.00,0.00,0.00
2014-08-07 07:10:00,0,46946,0,0.00,0,0,0,0,38698,50000,3422,47487,0,0,0,0,0.00,0.00,0.00,0.00
2014-08-07 07:20:00,0,49958,0,0.00,0,0,0,0,49598,50000,120,50000,0,0,0,0,0.00,0.00,0.00,0.00
2014-08-07 07:30:00,0,49588,0,0.00,0,0,0,0,47933,50000,685,50000,0,0,0,0,0.00,0.00,0.00,0.00
2014-08-07 07:40:00,0,49655,0,0.00,0,0,0,0,47347,50000,787,50000,0,0,0,0,0.00,0.00,0.00,0.00
2014-08-07 07:50:00,0,49510,0,0.00,0,0,0,0,46352,50000,1096,50000,0,0,0,0,0.00,0.00,0.00,0.00
2014-08-07 08:00:00,0,48236,0,0.00,0,0,0,0,42600,50000,2286,49324,0,0,0,0,0.00,0.00,0.00,0.00
2014-08-07 08:10:00,0,49626,0,0.00,0,0,0,0,47705,50000,771,50000,0,0,0,0,0.00,0.00,0.00,0.00
2014-08-07 08:20:00,0,49395,0,0.00,0,0,0,0,47851,50000,778,50000,0,0,0,0,0.00,0.00,0.00,0.00
2014-08-07 08:30:00,0,49535,0,0.00,0,0,0,0,46603,50000,1015,50000,0,0,0,0,0.00,0.00,0.00,0.00
2014-08-07 08:40:00,0,49374,0,0.00,0,0,0,0,44806,50000,1538,50000,0,0,0,0,0.00,0.00,0.00,0.00
2014-08-07 08:50:00,0,46100,0,0.00,0,0,0,0,41656,50000,2492,45264,0,0,0,0,0.00,0.00,0.00,0.00
2014-08-07 09:00:00,0,49445,0,0.00,0,0,0,0,47514,50000,855,50000,0,0,0,0,0.00,0.00,0.00,0.00
2014-08-07 09:10:00,0,47956,0,0.00,0,0,0,0,41210,50000,2669,49270,0,0,0,0,0.00,0.00,0.00,0.00
2014-08-07 09:20:00,0,49597,0,0.00,0,0,0,0,47088,50000,868,50000,0,0,0,0,0.00,0.00,0.00,0.00
2014-08-07 09:30:00,0,49307,0,0.00,0,0,0,0,43944,50000,1799,50000,0,0,0,0,0.00,0.00,0.00,0.00
2014-08-07 09:40:00,0,47754,0,0.00,0,0,0,0,45121,50000,1923,47082,0,0,0,0,0.00,0.00,0.00,0.00
2014-08-07 09:50:00,0,49427,0,0.00,0,0,0,0,47691,50000,921,50000,0,0,0,0,0.00,0.00,0.00,0.00
2014-08-07 10:00:00,0,49671,0,0.00,0,0,0,0,48601,50000,541,50000,0,0,0,0,0.00,0.00,0.00,0.00
2014-08-07 10:10:00,0,49967,0,0.00,0,0,0,0,49672,50000,98,50000,0,0,0,0,0.00,0.00,0.00,0.00
2014-08-07 10:20:00,0,49999,0,0.00,0,0,0,0,49988,50000,4,50000,0,0,0,0,0.00,0.00,0.00,0.00
2014-08-07 10:30:00,0,49671,0,0.00,0,0,0,0,46710,50000,987,50000,0,0,0,0,0.00,0.00,0.00,0.00
2014-08-07 10:40:00,0,49820,0,0.00,0,0,0,0,49040,50000,361,50000,0,0,0,0,0.00,0.00,0.00,0.00
2014-08-07 10:50:00,0,49992,0,0.00,0,0,0,0,49917,50000,25,50000,0,0,0,0,0.00,0.00,0.00,0.00
2014-08-07 11:00:00,0,50000,0,0.00,0,0,0,0,50000,50000,0,50000,0,0,0,0,0.00,0.00,0.00,0.00
2014-08-07 11:10:00,0,50000,0,0.00,0,0,0,0,50000,50000,0,50000,0,0,0,0,0.00,0.00,0.00,0.00
2014-08-07 11:20:00,0,49912,0,0.00,0,0,0,0,49117,50000,265,50000,0,0,0,0,0.00,0.00,0.00,0.00
2014-08-07 11:30:00,0,48392,0,0.00,0,0,0,0,43130,50000,2554,50000,0,0,0,0,0.00,0.00,0.00,0.00
2014-08-07 11:40:00,1,45964,0,0.00,0,2,1,2,36152,50000,4489,47386,0,0,0,0,0.00,0.00,0.00,0.00
2014-08-07 11:50:00,2,41293,0,0.00,2,2,0,2,28150,50000,7189,41916,0,0,0,0,0.00,0.00,0.00,0.00
2014-08-07 12:00:00,2,46957,0,0.00,2,2,0,2,36677,50000,4080,47882,0,0,0,0,0.00,0.00,0.00,0.00
2014-08-07 12:10:00,1,50000,0,0.00,0,2,1,0,50000,50000,0,50000,0,0,0,0,0.00,0.00,0.00,0.00
2014-08-07 12:20:00,0,48684,0,0.00,0,0,0,0,42808,50000,2224,50000,0,0,0,0,0.00,0.00,0.00,0.00
2014-08-07 12:30:00,0,50000,0,0.00,0,0,0,0,50000,50000,0,50000,0,0,0,0,0.00,0.00,0.00,0.00
2014-08-07 12:40:00,0,50000,0,0.00,0,0,0,0,50000,50000,0,50000,0,0,0,0,0.00,0.00,0.00,0.00
2014-08-07 12:50:00,0,49688,0,0.00,0,0,0,0,47373,50000,786,50000,0,0,0,0,0.00,0.00,0.00,0.00
2014-08-07 13:00:00,0,50000,0,0.00,0,0,0,0,50000,50000,0,50000,0,0,0,0,0.00,0.00,0.00,0.00
2014-08-07 13:10:00,0,50000,0,0.00,0,0,0,0,50000,50000,0,50000,0,0,0,0,0.00,0.00,0.00,0.00
2014-08-07 13:20:00,0,50000,0,0.00,0,0,0,0,50000,50000,0,50000,0,0,0,0,0.00,0.00,0.00,0.00
2014-08-07 13:30:00,0,50000,0,0.00,0,0,0,0,50000,50000,0,50000,0,0,0,0,0.00,0.00,0.00,0.00
2014-08-07 13:40:00,0,50000,0,0.00,0,0,0,0,50000,50000,0,50000,0,0,0,0,0.00,0.00,0.00,0.00
2014-08-07 13:50:00,0,50000,0,0.00,0,0,0,0,50000,50000,0,50000,0,0,0,0,0.00,0.00,0.00,0.00
2014-08-07 14:00:00,0,50000,0,0.00,0,0,0,0,50000,50000,0,50000,0,0,0,0,0.00,0.00,0.00,0.00
2014-08-07 14:10:00,0,50000,0,0.00,0,0,0,0,50000,50000,0,50000,0,0,0,0,0.00,0.00,0.00,0.00
2014-08-07 14:20:00,0,50000,0,0.00,0,0,0,0,50000,50000,0,50000,0,0,0,0,0.00,0.00,0.00,0.00
2014-08-07 14:30:00,0,50000,0,0.00,0,0,0,0,50000,50000,0,50000,0,0,0,0,0.00,0.00,0.00,0.00
2014-08-07 14:40:00,0,50000,0,0.00,0,0,0,0,50000,50000,0,50000,0,0,0,0,0.00,0.00,0.00,0.00
2014-08-07 14:50:00,0,50000,0,0.00,0,0,0,0,50000,50000,0,50000,0,0,0,0,0.00,0.00,0.00,0.00
2014-08-07 15:00:00,0,50000,0,0.00,0,0,0,0,50000,50000,0,50000,0,0,0,0,0.00,0.00,0.00,0.00
2014-08-07 15:10:00,0,50000,0,0.00,0,0,0,0,50000,50000,0,50000,0,0,0,0,0.00,0.00,0.00,0.00
2014-08-07 15:20:00,0,50000,0,0.00,0,0,0,0,50000,50000,0,50000,0,0,0,0,0.00,0.00,0.00,0.00
2014-08-07 15:30:00,0,50000,0,0.00,0,0,0,0,50000,50000,0,50000,0,0,0,0,0.00,0.00,0.00,0.00
2014-08-07 15:40:00,0,50000,0,0.00,0,0,0,0,50000,50000,0,50000,0,0,0,0,0.00,0.00,0.00,0.00
2014-08-07 15:50:00,0,50000,0,0.00,0,0,0,0,50000,50000,0,50000,0,0,0,0,0.00,0.00,0.00,0.00
2014-08-07 16:00:00,0,50000,0,0.00,0,0,0,0,50000,50000,0,50000,0,0,0,0,0.00,0.00,0.00,0.00
2014-08-07 16:10:00,0,50000,0,0.00,0,0,0,0,50000,50000,0,50000,0,0,0,0,0.00,0.00,0.00,0.00
2014-08-07 16:20:00,0,50000,0,0.00,0,0,0,0,50000,50000,0,50000,0,0,0,0,0.00,0.00,0.00,0.00
2014-08-07 16:30:00,0,49908,0,0.00,0,0,0,0,49083,50000,275,50000,0,0,0,0,0.00,0.00,0.00,0.00
2014-08-07 16:40:00,0,50000,0,0.00,0,0,0,0,50000,50000,0,50000,0,0,0,0,0.00,0.00,0.00,0.00
2014-08-07 16:50:00,0,50000,0,0.00,0,0,0,0,50000,50000,0,50000,0,0,0,0,0.00,0.00,0.00,0.00
2014-08-07 17:00:00,0,50000,0,0.00,0,0,0,0,50000,50000,0,50000,0,0,0,0,0.00,0.00,0.00,0.00
2014-08-07 17:10:00,0,50000,0,0.00,0,0,0,0,50000,50000,0,50000,0,0,0,0,0.00,0.00,0.00,0.00
2014-08-07 17:20:00,0,50000,0,0.00,0,0,0,0,50000,50000,0,50000,0,0,0,0,0.00,0.00,0.00,0.00
2014-08-07 17:30:00,0,50000,0,0.00,0,0,0,0,50000,50000,0,50000,0,0,0,0,0.00,0.00,0.00,0.00
2014-08-07 17:40:00,0,50000,0,0.00,0,0,0,0,50000,50000,0,50000,0,0,0,0,0.00,0.00,0.00,0.00
2014-08-07 17:50:00,0,50000,0,0.00,0,0,0,0,50000,50000,0,50000,0,0,0,0,0.00,0.00,0.00,0.00
2014-08-07 18:00:00,0,50000,0,0.00,0,0,0,0,50000,50000,0,50000,0,0,0,0,0.00,0.00,0.00,0.00
2014-08-07 18:10:00,0,50000,0,0.00,0,0,0,0,50000,50000,0,50000,0,0,0,0,0.00,0.00,0.00,0.00
2014-08-07 18:20:00,0,50000,0,0.00,0,0,0,0,50000,50000,0,50000,0,0,0,0,0.00,0.00,0.00,0.00
2014-08-07 18:30:00,0,50000,0,0.00,0,0,0,0,50000,50000,0,50000,0,0,0,0,0.00,0.00,0.00,0.00
2014-08-07 18:40:00,0,50000,0,0.00,0,0,0,0,50000,50000,0,50000,0,0,0,0,0.00,0.00,0.00,0.00
2014-08-07 18:50:00,0,50000,0,0.00,0,0,0,0,50000,50000,0,50000,0,0,0,0,0.00,0.00,0.00,0.00
2014-08-07 19:00:00,0,50000,0,0.00,0,0,0,0,50000,50000,0,50000,0,0,0,0,0.00,0.00,0.00,0.00
2014-08-07 19:10:00,0,49962,0,0.00,0,0,0,0,49624,50000,113,50000,0,0,0,0,0.00,0.00,0.00,0.00
2014-08-07 19:20:00,0,50000,0,0.00,0,0,0,0,50000,50000,0,50000,0,0,0,0,0.00,0.00,0.00,0.00
2014-08-07 19:30:00,0,49977,0,0.00,0,0,0,0,49770,50000,69,50000,0,0,0,0,0.00,0.00,0.00,0.00
2014-08-07 19:40:00,0,50000,0,0.00,0,0,0,0,50000,50000,0,50000,0,0,0,0,0.00,0.00,0.00,0.00
2014-08-07 19:50:00,0,50000,0,0.00,0,0,0,0,50000,50000,0,50000,0,0,0,0,0.00,0.00,0.00,0.00
2014-08-07 20:00:00,0,50000,0,0.00,0,0,0,0,50000,50000,0,50000,0,0,0,0,0.00,0.00,0.00,0.00
2014-08-07 20:10:00,0,50000,0,0.00,0,0,0,0,50000,50000,0,50000,0,0,0,0,0.00,0.00,0.00,0.00
2014-08-07 20:20:00,0,50000,0,0.00,0,0,0,0,50000,50000,0,50000,0,0,0,0,0.00,0.00,0.00,0.00
2014-08-07 20:30:00,0,48950,30,0.49,0,0,0,0,46056,50000,1614,50000,0,61,30,30,0.00,1.90,0.66,0.20
2014-08-07 20:40:00,0,48711,61,0.91,0,0,0,0,43252,50000,2114,50000,61,61,0,61,0.10,2.20,0.55,0.88
2014-08-07 20:50:00,0,46994,52,0.61,0,0,0,0,34318,50000,5089,50000,51,61,3,52,0.05,1.25,0.32,0.52
2014-08-07 21:00:00,0,49699,51,0.53,0,0,0,0,48361,50000,605,50000,51,52,0,51,0.35,1.00,0.19,0.45
2014-08-07 21:10:00,0,36989,53,1.99,0,0,0,0,14263,50000,11753,34782,51,61,3,52,0.45,3.70,0.92,1.85
2014-08-07 21:20:00,0,22343,61,3.00,0,0,0,0,13821,34485,6024,20696,61,61,0,61,1.30,5.35,1.09,3.05
2014-08-07 21:30:00,0,25053,61,2.61,0,0,0,0,20820,29754,3436,24356,61,61,0,61,1.40,4.10,0.81,2.33
2014-08-07 21:40:00,0,19869,55,2.48,0,0,0,0,17516,23266,1783,19500,52,61,4,52,1.75,4.50,0.80,2.12
2014-08-07 21:50:00,0,20363,52,2.96,0,0,0,0,13624,27800,4477,19700,52,52,0,52,1.85,4.20,0.82,2.98
2014-08-07 22:00:00,0,15589,57,3.23,0,0,0,0,13223,18067,1645,15899,52,61,4,61,1.75,5.45,1.03,3.25
2014-08-07 22:10:00,0,22514,56,2.27,0,0,0,0,16564,33648,5323,20286,52,61,4,56,0.85,3.75,0.86,2.15
2014-08-07 22:20:00,0,34716,58,1.14,0,0,0,0,26954,42852,5349,33692,52,61,4,61,0.25,2.50,0.72,0.93
2014-08-07 22:30:00,0,45552,61,1.11,0,0,0,0,33803,50000,5099,47196,61,61,0,61,0.25,3.30,0.79,1.08
2014-08-07 22:40:00,0,44806,54,0.65,0,0,0,0,32991,50000,5875,47848,51,61,4,52,0.20,1.65,0.40,0.55
2014-08-07 22:50:00,0,27481,54,1.74,0,0,0,0,19513,38492,5992,27428,52,61,4,52,0.55,3.55,0.94,1.55
2014-08-07 23:00:00,0,18726,61,4.73,0,0,0,0,15569,24759,2902,18311,61,62,0,61,2.15,12.50,3.34,3.05
2014-08-07 23:10:00,0,23086,61,3.14,0,0,0,0,17719,40889,6191,21510,61,61,0,61,2.15,6.00,1.19,2.85
2014-08-07 23:20:00,0,20235,61,4.24,0,0,0,0,13436,31542,6601,16892,61,61,0,61,2.60,5.80,0.83,4.25
2014-08-07 23:30:00,0,21268,61,3.98,0,0,0,0,17044,25891,3180,21455,61,61,0,61,2.80,6.70,1.04,4.03
2014-08-07 23:40:00,0,14853,58,3.80,0,0,0,0,12371,17617,1445,14740,52,61,4,61,3.15,4.45,0.38,3.85
2014-08-07 23:50:00,0,13653,61,7.20,0,0,0,0,11676,15217,1228,14008,61,62,0,61,4.25,13.35,2.62,6.30
